Location: Keppel Henge
(44.7900°N, 80.9447°W)
Time: 17:34:29
(UTC-05:00)

Envisat - Pass Details

Date: 10 October 2017
Orbit: 764 x 766 km, 98.2° (Epoch: 18 December)

Event Time Altitude Azimuth Distance (km) Brightness Sun altitude
Exits shadow 19:27:29 10° 86° (E) 2,336 4.8 -7.9°
Reaches altitude 10° 19:27:39 10° 85° (E) 2,307 4.8 -7.9°
Maximum altitude 19:29:58 13° 57° (ENE) 2,088 4.8 -8.4°
Drops below altitude 10° 19:32:18 10° 30° (NNE) 2,314 5.2 -8.8°
Sets 19:35:49 0° 4° (N) 3,246 6.2 -9.4°
